sat.trackr.live / text

‹ back to catalog

STARLINK-34327

NORAD 64208 · 2025-117F

PAYLOAD ACTIVE UNKNOWN

§ Identity

Operator
Country
US
Launch date
2025-05-31
Launch site
AFWTR
Launch vehicle
Mass (kg)
RCS (m²)

Purposes: comms

External: N2YO · Heavens-Above · Gunter

§ Orbital elements

Epoch: 2026-09-20T06:38:16.205280Z

Period
93.85 min
Inclination
53.1580°
Eccentricity
0.0001258
Mean motion
15.34400891 rev/d
Perigee alt
461.8 km
Apogee alt
463.6 km
Semi-major
6,840.8 km
B*
5.2996e-4
RAAN
214.6458°
Arg perigee
115.4320°
Mean anomaly
244.6813°
Rev number
7,329

§ Raw data

STARLINK-343271 64208U 25117F   26263.27657645  .00017572  00000+0  52996-3 0  99922 64208  53.1580 214.6458 0001258 115.4320 244.6813 15.34400891 73290

JSON: /api/v1/satellites/64208 · /tle

For live sub-satellite position, see the globe view (requires WebGL).

§ Visibility from observer

Set your observer location to see the next 7 days of passes ≥ 10°. The values pass through the URL so the page stays shareable.

No JS? Fill the form by hand. The geolocation button needs JavaScript.